Tracking 18876 objects as of 15-Dec-2017
HD Live streaming from Space Station
objects crossing your sky now

TITAN 3C TRANSTAGE R/B

Track TITAN 3C TRANSTAGE R/B now!


NORAD ID: 3692
Int'l Code: 1969-013B
Perigee: 35,862.1 km
Apogee: 37,251.9 km
Inclination: 6.4 °
Period: 1,475.3 minutes
Semi major axis: 42927 km
RCS: 2.2907 m2 (large)
Launch date: February 9, 1969
Source: United States (US)
Launch site: AIR FORCE EASTERN TEST RANGE (AFETR)

Note: This is a ROCKET BODY
aabbcc
Your satellite tracking list
Your tracking list is empty




NASA's NSSDC Master Catalog

Two Line Element Set (TLE):
1  3692U 69013B   17347.82387201 -.00000294 +00000-0 +00000-0 0  9998
2  3692 006.4334 301.7373 0161878 126.3280 099.8087 00.97609462012017
Source of the keplerian elements: AFSPC